Hlavní strana
METAR-TAF:

METAR-TAF

Letiště :

Passo Rolle, Itálie

zeměpisná šířka: 46-18N, zeměpisná délka: 011-47E, výška: 2004 m

Aktuální stav počasí

Zpráva byla vytvořena před 1 hodinou a 25 minutami, v 09:55 UTC
Východojihovýchodní vítr 9 kt
Teplota 6°C
Vlhkost vzduchu 87%
Tlak 1022 hPa
Viditelnost 10 km a více
Oblačno až skoro zataženo ve výšce 2000 ft

METAR: LIVR 150955Z 12009KT 9999 BKN020 06/04 Q1022 RMK BKN MON CIME INC VIS MIN 9999

Čas: 13:20 (11:20 UTC)


TAF: chybějící

Stav a předpovědi počasí z více než 4 000 letišť (zprávy METAR a TAF).

Červené a žluté tečky na mapě představují dostupné meteorologické stanice.

Když kurzor umístíte na tečku, zobrazí se název stanice.

Pak kliknutím zobrazíte stav a předpověď počasí.

Chcete-li změnit mapu, kliknutím na zelené tlačítko se znaménkem +mapu přiblížíte, kliknutím na zelené tlačítko se znaménkem – mapu oddálíte a kliknutím na zelené šipky přejdete na sousední mapy.


METAR-TAF: